Regional Weather Roundup
Issued by NWS

Home | Current Version | Previous Version | Text Only | Print | Product List | Glossary On
Versions: 1 2 3 4 5 6 7 8 9 10 11 12 13 14 15 16 17 18 19 20 21 22 23 24 25 26 27 28 29 30 31 32 33 34 35 36 37 38 39 40 41 42 43 44 45 46 47 48 49 50
000
ASUS43 KMKX 300400
RWRWI

WISCONSIN REGIONAL WEATHER ROUNDUP
NATIONAL WEATHER SERVICE MILWAUKEE/SULLIVAN WI
1100 PM CDT SAT AUG 29 2015

NOTE: "FAIR" INDICATES FEW OR NO CLOUDS BELOW 12,000 FEET WITH NO
SIGNIFICANT WEATHER AND/OR OBSTRUCTIONS TO VISIBILITY.

WIZ001-002-006>008-014>016-023>028-300500-
NORTHWEST WISCONSIN

CITY           SKY/WX    TMP DP  RH WIND       PRES   REMARKS
SUPERIOR ARPT  PTCLDY    64  63  94 SW5       29.97F
ASHLAND        CLEAR     62  62 100 S6        29.99F
HAYWARD        CLEAR     63  61  93 S5        30.02F
SIREN          CLEAR     62  60  93 CALM      30.02R
CUMBERLAND     CLEAR     59  57  94 S7        30.02F
RICE LAKE      CLEAR     60  58  91 CALM      30.04F
CHETEK         CLEAR    N/A N/A N/A E5        30.04S
LADYSMITH      CLEAR     61  59  95 S3        30.05F FOG
EAU CLAIRE     NOT AVBL
MENOMONIE      CLEAR     60  59  97 CALM      30.04S FOG
NEW RICHMOND   CLEAR     63  62  97 S6        30.03S
OSCEOLA        CLEAR     62  62 100 S6        30.03F
$$

WIZ003>005-009-010-017-018-300500-
NORTH CENTRAL WISCONSIN

CITY           SKY/WX    TMP DP  RH WIND       PRES   REMARKS
MANITOWISH WTR CLEAR     59  59 100 S3        30.04S
ARBOR VITAE    CLEAR     63  61  94 SW5       30.05R
WOODRUFF       CLEAR     63  61  94 SW5       30.05R
RHINELANDER    CLEAR     61  59  93 SW6       30.07S
EAGLE RIVER    CLEAR     62  60  93 CALM      30.05R
LAND O LAKES   CLEAR     59  58  96 CALM      30.06R
PHILLIPS       CLEAR     60  60  99 S5        30.04S
TOMAHAWK       CLEAR     58  57  96 CALM      30.06F FOG
MEDFORD        CLEAR     56  56 100 S6        30.07S FOG
MERRILL        FOG       55  55 100 CALM      30.07S VSB 1/4
$$

WIZ029-030-035-036-043>047-300500-
CENTRAL WISCONSIN

CITY           SKY/WX    TMP DP  RH WIND       PRES   REMARKS
WAUSAU         PTCLDY    59  58  96 CALM      30.05S FOG
MOSINEE        FOG       55  55 100 CALM      30.07F VSB 1
MARSHFIELD     CLEAR     60  55  83 CALM      30.06F
STEVENS POINT  CLOUDY    59  57  94 S3        30.07F
WAUPACA        PTCLDY    61  60  97 CALM      30.06S FOG
WAUTOMA        NOT AVBL
WISC RAPIDS    CLOUDY    63  59  87 CALM      30.08S
CAMP DOUGLAS   CLOUDY    65  65 100 CALM      30.06S
$$

WIZ011>013-019>022-031-037>040-048>050-300500-
NORTHEAST WISCONSIN

CITY           SKY/WX    TMP DP  RH WIND       PRES   REMARKS
ANTIGO         FOG       55  55 100 SW5       30.07F VSB 1/2
SHAWANO        FOG       58  57  94 CALM      30.06F VSB<1/4
OCONTO         CLEAR     56  56 100 CALM      30.05S
STURGEON BAY   CLEAR     59  55  88 S7        30.08S
GREEN BAY      PTCLDY    61  59  93 S3        30.05F FOG
MANITOWOC      MOCLDY    57  55  94 MISG      30.06F FOG
APPLETON       CLOUDY    64  63  94 VRB5      30.04F
CLINTONVILLE   FOG       55  55 100 CALM      30.05F VSB 1/2
OSHKOSH        CLOUDY    65  62  90 S5        30.05F
$$

WIZ032>034-041-042-053>061-300500-
SOUTHWEST WISCONSIN

CITY           SKY/WX    TMP DP  RH WIND       PRES   REMARKS
LA CROSSE      CLEAR     64  61  90 E5        30.04S
SPARTA         CLOUDY    64  62  91 CALM      30.07S
VIROQUA          N/A     64  62  94 E3        30.08R
BOSCOBEL       CLOUDY    67  64  90 CALM      30.06S
PRAIRIE DU CHI CLOUDY    66  62  88 CALM      30.06R
PLATTEVILLE    CLOUDY    66  64  94 E3        30.06F
$$

WIZ056-057-062-063-064-067-068-300500-
SOUTH CENTRAL WISCONSIN

CITY           SKY/WX    TMP DP  RH WIND       PRES   REMARKS
REEDSBURG      CLOUDY    64  63  96 CALM      30.06S
BARABOO/DELLS  CLOUDY    64  61  89 CALM      30.06S
LONE ROCK      NOT AVBL
MINERAL POINT  CLOUDY    66  64  94 CALM      30.07S
MADISON        CLOUDY    65  62  90 CALM      30.05S
MIDDLETON      CLOUDY    66  65  98 CALM      30.06F
WATERTOWN      CLOUDY    63  63 100 CALM      30.05F
MONROE         CLOUDY    64  63  94 CALM      30.06F
JANESVILLE     CLOUDY    64  63  94 CALM      30.05S FOG
$$

WIZ051-052-058>065-066-070>072-300500-
SOUTHEAST WISCONSIN

CITY           SKY/WX    TMP DP  RH WIND       PRES   REMARKS
MILWAUKEE      CLOUDY    63  62  97 N5        30.05S FOG
WAUKESHA       CLOUDY    61  59  94 CALM      30.07S FOG
MILWAUKEE/TIMM CLOUDY    61  59  94 CALM      30.06F FOG
RACINE         CLOUDY    63  61  93 N8        30.06S FOG
BURLINGTON     CLOUDY    61  61  99 NE3       30.05S FOG
KENOSHA        FOG       63  62  97 N5        30.05S VSB 1
FOND DU LAC    CLOUDY    64  63  96 S3        30.06F
SHEBOYGAN      CLOUDY    63  61  93 CALM      30.06F FOG
WEST BEND      CLOUDY    61  59  94 CALM      30.06F FOG
JUNEAU         CLOUDY    63  62  97 CALM      30.07F FOG
$$

LSZ147-162-300500-
LAKE SUPERIOR

STATION/POSITION TIME  TEMP    WIND        PRES    WAVE
                       AIR SEA DIR/SP/G            HT/PER
                 (UTC) (F)     (DEG/KT/KT) (MB)    (FT/S)
W MID LAKE BUOY  0250   59 54  180/  6/  6 1015.0F   1
DEVILS ISLAND    0300   69     200/  8/  9 1014.7F
PORT WING        0300   66     160/  2/  4 1015.2F
SAXON HARBOR     0340   65     190/  1/  5 1014.9F
$$

LMZ867-665-643>646-300500-
LAKE MICHIGAN

STATION/POSITION TIME  TEMP    WIND        PRES    WAVE
                       AIR SEA DIR/SP/G            HT/PER
                 (UTC) (F)     (DEG/KT/KT) (MB)    (FT/S)
CHAMBERS ISLAND  0300   62     150/  3/  6 1017.6S
S GREEN BAY BUOY 0300   63 62  170/  8/ 10 1019.0S
N MID LAKE BUOY  0250   63 65  200/ 10/ 12 1017.4R   1
NORTHPORT PIER   0300   62     190/  4/  7 1017.6S
SISTER BAY       0319   62     150/  8/  9   N/A
ALGOMA LAKESHORE 0314             CALM       N/A
SHEBOYGAN LAKESH 0300   61     320/  1/  1 1018.4F
PORT WASHINGTON  0340   62      10/  2/  3 1018.3F
ATWATER BUOY     0300   53 50  330/  6/  8 1019.1R
MILWAUKEE LAKESH 0300   61     340/  6/  7   N/A
S MID LAKE BUOY  0250   67 68   30/  6/  8 1016.5R   1/ 3
KENOSHA   LAKESH 0300   62     350/  8/ 11 1017.3R
$$

TC  - TEMPERATURE IN CELSIUS
VSB - VISIBILITY IN STATUTE MILES
WCI - WIND CHILL INDEX
HX  - HEAT INDEX




USA.gov is the U.S. government's official web portal to all federal, state and local government web resources and services.